Flag for Germany Weather past 2 weeks in Ludwigsburg, Baden-Württemberg, Germany

Now
54 °F

Sunny.


Feels Like: 53 °F
Forecast: 36 / 54 °F
Wind: 5 mph from East

Location: Stuttgart-Echterdingen


UV Index: 3 (Moderate)

Visibility: 10 mi


Pressure: 30.01 "Hg

Humidity: 30%

Dew point: 23 °F

Location of LudwigsburgLocation

Historic Weather in Ludwigsburg

°F

Ludwigsburg temperature yesterday

Maximum temperature yesterday: 52 °F (at 2:20 PM)
Minimum temperature yesterday: 32 °F (at 6:20 AM)
Average temperature yesterday: 43 °F

Past Weeks' High & Low Weather Summary

 TemperatureHumidityPressure
High70 °F (Apr 2, 6:20 PM)94% (Apr 5, 10:20 PM)30.36 "Hg (Apr 5, 10:20 PM)
Low32 °F (Apr 16, 6:20 AM)21% (Apr 17, 5:20 PM)29.65 "Hg (Apr 3, 5:50 PM)
Average53 °F61%30.05 "Hg
* Reported Apr 2 6:20 PM — Apr 17 6:50 PM, Ludwigsburg, Weather by CustomWeather, © 2014

Note: Actual official high and low records may vary slightly from our data, if they occured in-between our weather recording intervals... More about our weather records

Advertising

Historic Weather Conditions — Data for Previous 24 hours

 ConditionsComfort  
Time TempWeatherWind HumidityBarometerVisibility
6:50 PM
Apr 17
59 °FSunny.5 mph23%30.01 "Hg10 mi
6:20 PM59 °FSunny.6 mph23%30.04 "Hg10 mi
5:50 PM59 °FSunny.6 mph25%30.04 "Hg10 mi
5:20 PM59 °FSunny.3 mph21%30.04 "Hg10 mi
4:50 PM59 °FSunny.5 mph23%30.07 "Hg10 mi
4:20 PM59 °FPassing clouds.5 mph23%30.07 "HgN/A
3:50 PM59 °FPassing clouds.7 mph25%30.09 "HgN/A
3:20 PM57 °FSunny.3 mph23%30.09 "Hg10 mi
2:50 PM57 °FSunny.3 mph27%30.12 "Hg10 mi
2:20 PM57 °FPassing clouds.6 mph29%30.12 "HgN/A
1:50 PM55 °FSunny.6 mph26%30.15 "Hg10 mi
1:20 PM54 °FPassing clouds.7 mph28%30.15 "HgN/A
12:50 PM54 °FSunny.7 mph26%30.18 "Hg10 mi
12:20 PM54 °FSunny.6 mph28%30.21 "Hg10 mi
11:50 AM52 °FSunny.8 mph32%30.21 "Hg10 mi
11:20 AM50 °FPassing clouds.8 mph35%30.21 "HgN/A
10:50 AM50 °FSunny.7 mph40%30.24 "Hg10 mi
10:20 AM48 °FSunny.6 mph46%30.24 "Hg10 mi
9:20 AM45 °FSunny.6 mph61%30.24 "Hg10 mi
8:50 AM41 °FSunny.5 mph66%30.27 "Hg10 mi
8:20 AM39 °FSunny.5 mph70%30.27 "Hg10 mi
7:50 AM39 °FSunny.1 mph70%30.27 "Hg10 mi
7:20 AM36 °FClear.2 mph81%30.27 "Hg10 mi
6:50 AM34 °FClear.2 mph87%30.24 "Hg10 mi
6:20 AM32 °FClear.1 mph80%30.24 "Hg10 mi
5:50 AM34 °FClear.1 mph75%30.24 "Hg10 mi
5:20 AM32 °FClear.1 mph80%30.27 "Hg10 mi
4:50 AM34 °FClear.1 mph81%30.27 "Hg10 mi
4:20 AM36 °FClear.No wind75%30.27 "Hg10 mi
3:50 AM36 °FClear.1 mph75%30.30 "Hg10 mi
3:20 AM34 °FClear.2 mph81%30.30 "Hg10 mi
2:50 AM36 °FClear.2 mph75%30.30 "Hg10 mi
2:20 AM36 °FClear.1 mph81%30.30 "Hg10 mi
1:50 AM37 °FClear.2 mph75%30.33 "Hg10 mi
1:20 AM37 °FClear.2 mph70%30.33 "Hg10 mi
12:50 AM39 °FClear.3 mph70%30.33 "Hg10 mi
12:20 AM41 °FClear.1 mph66%30.33 "Hg10 mi
11:50 PM
Apr 16
39 °FClear.5 mph70%30.33 "Hg10 mi
11:20 PM39 °FClear.1 mph65%30.33 "Hg10 mi
10:50 PM43 °FClear.6 mph61%30.33 "Hg10 mi
10:20 PM45 °FClear.5 mph57%30.33 "Hg10 mi
9:50 PM43 °FClear.3 mph61%30.33 "Hg10 mi
9:20 PM45 °FClear.5 mph57%30.33 "Hg10 mi
8:50 PM45 °FSunny.5 mph53%30.33 "Hg10 mi
8:20 PM46 °FSunny.7 mph53%30.33 "Hg10 mi
Weather by CustomWeather, © 2014

See weather overview